Regional Weather Roundup
Issued by NWS

Home | Current Version | Previous Version | Text Only | Print | Product List | Glossary Off
Versions: 1 2 3 4 5 6 7 8 9 10 11 12 13 14 15 16 17 18 19 20 21 22 23 24 25 26 27 28 29 30 31 32 33 34 35 36 37 38 39 40 41 42 43 44 45 46 47 48 49 50

000
ASUS43 KMPX 010810
RWRMN
WEATHER ROUNDUP FOR MINNESOTA
NATIONAL WEATHER SERVICE TWIN CITIES/CHANHASSEN MN
300 AM CDT TUE SEP 01 2015


NOTE: "FAIR" INDICATES FEW OR NO CLOUDS BELOW 12,000 FEET WITH NO
SIGNIFICANT WEATHER AND/OR OBSTRUCTIONS TO VISIBILITY. N/A MEANS
CURRENT SKY AND/OR WEATHER CONDITIONS ARE NOT AVAILABLE.

MNZ060>063-068>070-010900-
   Twin Cities Metro

CITY           SKY/WX    TMP DP  RH WIND       PRES   REMARKS
TWIN CITIES    MOCLDY    74  68  81 S5        29.91S
ST PAUL        MOCLDY    70  70 100 SE5       29.91S FOG
CRYSTAL        CLOUDY    75  69  81 S7        29.89F
BLAINE         MOCLDY    75  72  88 S6        29.90F
LAKEVILLE        N/A     64  64 100 S3        29.92F FOG
EDEN PRAIRIE   MOCLDY    71  68  90 S7        29.90F
SOUTH ST PAUL  PTCLDY    71  68  91 CALM      29.91F
LAKE ELMO      FAIR      66  66 100 S5        29.92F FOG
$$
MNZ001>005-007-008-013>017-022>024-027-028-010900-
   Northwest Minnesota

CITY           SKY/WX    TMP DP  RH WIND       PRES   REMARKS
BEMIDJI          N/A     58  58  99 CALM      29.90S FOG
HALLOCK        PTCLDY    50  46  87 CALM      29.83S
ROSEAU         PTCLDY    55  50  82 S6        29.85R
WARROAD        PTCLDY    55  52  88 SW8       29.85S
THIEF RVR FALL PTCLDY   N/A N/A N/A S5        29.87S
CROOKSTON      PTCLDY    54  54 100 SE7       29.87S
FOSSTON        FOG       55  55 100 CALM      29.89F VSB 3/4
DETROIT LAKES  FOG       63  63 100 CALM      29.91F VSB 1/2
MOORHEAD       FOG       55  55 100 CALM      29.88F VSB 1/4
PARK RAPIDS    FOG       62  60  93 CALM      29.90F VSB 1/4
MAHNOMEN       FAIR      59  59  99 S6        29.89S FOG
$$
MNZ006-009>011-018-025>026-010900-
   North Central Minnesota

CITY           SKY/WX    TMP DP  RH WIND       PRES   REMARKS
BAUDETTE       PTCLDY    55  53  93 CALM      29.85S
FLAG ISLAND    PTCLDY    63  55  77 SW5       29.81F
INTL FALLS     PTCLDY    62  60  93 W5        29.86S
WASKISH        PTCLDY    55  55 100 CALM      29.88S FOG
BIG FORK       FOG       61  61 100 CALM      29.90R VSB 1/2
LONGVILLE      PTCLDY    64  64 100 W3        29.89F
GRAND RAPIDS     N/A     66  64  94 CALM      29.89S VSB 1/2
CRANE LAKE     MOCLDY    61  59  94 CALM      29.89S
ORR            MOCLDY    63  61  94 CALM      29.87R
COOK           PTCLDY    64  64 100 CALM      29.89S FOG
WALKER         FOG       62  62 100 CALM      29.90S VSB 1/2
$$
MNZ012-019>021-037-010900-
   Northeast Minnesota

CITY           SKY/WX    TMP DP  RH WIND       PRES   REMARKS
DULUTH         CLOUDY    72  68  87 SW8       29.89F
ELY            CLOUDY    70  66  88 CALM      29.89R
HIBBING        FOG       65  64  97 CALM      29.88F VSB 1
EVELETH        CLOUDY    66  66 100 CALM      29.90S FOG
DULUTH HARBOR  CLOUDY    72  70  94 SW3       29.87S
TWO HARBORS    MOCLDY    73  68  83 CALM      29.86F
SILVER BAY     MOCLDY    68  66  94 CALM      29.86S FOG
GRAND MARAIS     N/A     58  56  93 CALM      29.86S
G MARAIS ARPRT MOCLDY    68  64  88 CALM      29.91S FOG
$$
MNZ029>031-032-039>041-046>048-054>057-064-010900-
   West Central Minnesota

CITY           SKY/WX    TMP DP  RH WIND       PRES   REMARKS
FERGUS FALLS   CLOUDY    66  66 100 NE5       29.88F
WHEATON          N/A     61  61 100 CALM      29.90S FOG
MORRIS         MOCLDY    66  64  94 CALM      29.88S FOG
ALEXANDRIA     CLOUDY    67  66  97 N5        29.90F
ELBOW LAKE     FAIR      66  65  99 N3        29.89S
WADENA         CLOUDY    63  63 100 CALM      29.90S FOG
GLENWOOD       CLOUDY    66  66 100 SE6       29.90S
APPLETON       MOCLDY    68  66  94 CALM      29.87F
BENSON         CLOUDY    66  64  94 CALM      29.88S FOG
ORTONVILLE     PTCLDY    70  64  83 NW1       29.88S
MADISON        MOCLDY    68  66  94 CALM      29.88F FOG
WILLMAR        FAIR      72  70  94 CALM      29.90S
$$
MNZ033>034-036-042>043-049>051-058-059-010900-
   Central Minnesota

CITY           SKY/WX    TMP DP  RH WIND       PRES   REMARKS
ST CLOUD       MOCLDY    69  67  93 CALM      29.88F
SAUK CENTRE    LGT RAIN  69  68  96 CALM      29.89F
PAYNESVILLE    CLOUDY    70  68  93 CALM      29.90S
AITKIN         MOCLDY    72  66  83 CALM      29.88S
PINE RIVER     MOCLDY    66  66 100 CALM      29.92F
BRAINERD       MOCLDY    69  67  93 CALM      29.89S
STAPLES        MOCLDY    64  64 100 CALM      29.89F
LONG PRAIRIE   FAIR      66  64  94 CALM      29.90F FOG
LITTLE FALLS   CLOUDY    70  64  83 CALM      29.89S
LITCHFIELD     MOCLDY    70  70 100 CALM      29.90F
BUFFALO        MOCLDY    70  65  85 S5        29.90F
MAPLE LAKE     MOCLDY    71  68  92 S3        29.90F
$$
MNZ037-044-045-052-053-010900-
   East Central Minnesota

CITY           SKY/WX    TMP DP  RH WIND       PRES   REMARKS
PRINCETON      MOCLDY    72  68  88 S3        29.89F
MORA           CLOUDY    70  68  94 CALM      29.90F
CAMBRIDGE      CLOUDY    73  64  73 S6        29.88S
RUSH CITY      MOCLDY    70  68  93 S3        29.90S
MOOSE LAKE     CLOUDY    68  66  94 CALM      29.87S FOG
HINCKLEY       CLOUDY    70  70 100 CALM      29.89F FOG
CLOQUET        CLOUDY    72  66  83 SW6       29.89F
MCGREGOR       CLOUDY    70  68  94 CALM      29.89S
$$
MNZ071>073-080-081-089-090-097-098-010900-
   Southwest Minnesota

CITY           SKY/WX    TMP DP  RH WIND       PRES   REMARKS
MONTEVIDEO     MOCLDY    70  66  88 CALM      29.90S
GRANITE FALLS  MOCLDY    68  67  98 CALM      29.90F
CANBY          MOCLDY    69  66  91 CALM      29.90S
MARSHALL       MOCLDY    70  64  83 CALM      29.90F
REDWOOD FALLS  PTCLDY    69  67  93 S6        29.89F
OLIVIA         MOCLDY    68  64  88 CALM      29.89S
PIPESTONE      MOCLDY    70  66  88 S5        29.92F
WINDOM         PTCLDY    68  64  88 CALM      29.93S
WORTHINGTON    PTCLDY    66  63  88 S5        29.93S
JACKSON        PTCLDY    68  64  88 S6        29.94S
TRACY          PTCLDY    71  67  88 SW9       29.90F
SLAYTON        PTCLDY    67  66  97 CALM      29.93S
$$
MNZ065>067-074>077-082>085-091>093-010900-
   South Central Minnesota

CITY           SKY/WX    TMP DP  RH WIND       PRES   REMARKS
MANKATO        CLEAR     66  63  88 S7        29.92F
NEW ULM        PTCLDY    66  64  94 S3        29.91S
ST JAMES       PTCLDY    66  66 100 S5        29.92F
FAIRMONT       CLEAR     63  57  82 S5        29.93S
GLENCOE        PTCLDY    69  67  95 S3        29.90F
FARIBAULT      CLEAR     64  64 100 CALM      29.94S FOG
OWATONNA       CLEAR     70  66  88 S6        29.94S FOG
WASECA         CLEAR     64  63  94 CALM      29.94F FOG
ALBERT LEA       N/A     68  66  94 CALM      29.95F FOG
$$
MNZ078>079-086>088-094>096-010900-
   Southeast Minnesota

CITY           SKY/WX    TMP DP  RH WIND       PRES   REMARKS
ROCHESTER      FOG       68  67  96 S5        29.97S VSB 1/2
RED WING       PTCLDY    72  70  94 CALM      29.92S FOG
STANTON        CLEAR     68  65  90 CALM      29.92S FOG
DODGE CENTER   CLEAR     68  66  94 S5        29.96S FOG
WINONA         CLEAR     70  70 100 CALM      29.94F FOG
AUSTIN         FOG       72  70  94 S3        29.96S VSB<1/4
PRESTON        CLEAR     70  68  94 S5        29.98S FOG
$$
ABBREVIATIONS USED IN REMARKS
   TC - TEMPERATURES IN CELSIUS
  WCI - WIND CHILL INDEX
   HX - HEAT INDEX
  VSB - VISIBILITY
$$



USA.gov is the U.S. government's official web portal to all federal, state and local government web resources and services.